Regional Weather Roundup
Issued by NWS

Home | Current Version | Previous Version | Graphics & Text | Print | Product List | Glossary On
Versions: 1 2 3 4 5 6 7 8 9 10 11 12 13 14 15 16 17 18 19 20 21 22 23 24 25 26 27 28 29 30 31 32 33 34 35 36 37 38 39 40 41 42 43 44 45 46 47 48 49 50
000
ASUS45 KTFX 251919
RWRMT
MONTANA HOURLY WEATHER ROUNDUP
NATIONAL WEATHER SERVICE GREAT FALLS MT
1219 PM MST SUN JAN 25 2015

NOTE: "FAIR" INDICATES FEW OR NO CLOUDS BELOW 12000 FEET WITH NO
SIGNIFICANT WEATHER AND/OR OBSTRUCTIONS TO VISIBILITY.

* THESE STATIONS ARE NOT UNDER NWS QUALITY CONTROL. THEY DO NOT
   REPORT WEATHER SUCH AS PRECIPITATION OR FOG.

MTZ001>007-043-252000-
WEST OF THE DIVIDE
CITY           SKY/WX    TMP DP  RH WIND       PRES   REMARKS
KALISPELL      PTSUNNY   41  37  86 N3        30.15S
MISSOULA       FOG       34  34 100 CALM      30.23F VSB M1/4
BUTTE          SUNNY     48  30  50 N3        30.25R
MULLAN PASS    CLOUDY    39  34  82 VRB5      30.25S WCI  35
* ANACONDA     SUNNY     54  30  40 S13G20     N/A
* ESSEX        N/A       45  40  83 N/A        N/A
* EUREKA APT   CLOUDY    45  39  80 S5        30.12F
* HAMILTON APT PTCLDY    59  30  33 S18       30.21F
* LIBBY APT    CLOUDY    36  36 100 CALM      30.17F VSB M1/4
* LINCOLN      N/A       49  35  59 S4G11      N/A
* LOOKOUT PASS N/A       43  38  83 N3         N/A
* POLSON       N/A       45  37  74 S2         N/A
* RONAN APT    CLOUDY    46  46 100 E5         N/A
* SEELEY LAKE  N/A       52  39  61 S2         N/A
* THOMP F APT  CLOUDY    28  25  89 SE3        N/A
$$

MTZ008-052>055-252000-
SOUTHWEST MONTANA
CITY           SKY/WX    TMP DP  RH WIND       PRES   REMARKS
BOZEMAN        CLOUDY    37  34  89 SW5       30.21F WCI  33
DILLON         PTCLDY    54  28  37 SW16G25   30.27F
* W YELLOWSTON CLOUDY    34  29  82 SW5G12     N/A   WCI  29
* THREE FORKS  CLOUDY    37  37 100 N/A        N/A
* BOULDER HILL N/A       49  28  44 SW9G14     N/A
* MONIDA PASS  N/A       27  27 100 SE14       N/A   WCI  16
* RAYNOLDS PAS N/A       28  11  49 SE20       N/A   WCI  15
* WHITEHALL    N/A       51  32  48 SW17G27    N/A
* WISE RIVER   N/A       51  28  41 NW13G28    N/A
$$

MTZ009>010-012-014-046-048-049-054-252000-
EAST SLOPES AND CENTRAL MONTANA
CITY           SKY/WX    TMP DP  RH WIND       PRES   REMARKS
CUT BANK       PTCLDY    55  37  51 W23G28    29.96S
GREAT FALLS    CLOUDY    54  36  51 SW23      30.01R
HELENA         PTSUNNY   48  36  63 E7        30.16F
MALMSTROM AFB  CLOUDY    54  36  51 SW35G41   29.99F
* CONRAD       PTSUNNY   52  39  61 SW5        N/A
* DEARBORN     N/A       57  32  39 S20G31     N/A
* EAST GLACIER N/A       50  29  44 W19G41     N/A
* MONARCH      N/A       47  26  44 SW19G29    N/A
* PENDROY      N/A       56  35  45 NW20G29    N/A
* ROGERS PASS  N/A       47  32  56 E15G28     N/A
* SWEET GRASS  N/A       51  34  52 W32G44     N/A
* WHITE SULPH  N/A       47  30  52 SW5G14     N/A
$$

MTZ011-013-016-021-035-040-045-047-050-051-252000-
NORTH CENTRAL MONTANA
CITY           SKY/WX    TMP DP  RH WIND       PRES   REMARKS
HAVRE          PTSUNNY   48  37  66 SW21G28   29.88S
LEWISTOWN      PTCLDY    45  34  65 SW7       29.98F
* N BAR RANCH  SUNNY     57  30  36 NW18G25   29.94F
* CHINOOK      PTSUNNY   48  37  66 CALM      29.88S
* MALTA APT    PTCLDY    45  34  65 SW6        N/A
* CHESTER      N/A       50  35  57 W12G19     N/A
* DENTON       N/A       50  31  48 SW14       N/A
* GEYSER       N/A       56  30  37 SW29G39    N/A
* JUDITH GAP   N/A       53  36  53 W24G35     N/A
* LOMA         N/A       56  36  47 SW16       N/A
$$

MTZ017>020-022>027-061-062-252000-
NORTHEAST MONTANA
CITY           SKY/WX    TMP DP  RH WIND       PRES   REMARKS
GLASGOW        PTSUNNY   37  30  76 SE5       29.87F WCI  33
GLENDIVE       CLOUDY    39  28  65 S13       29.92F WCI  31
JORDAN         SUNNY     50  37  61 W7        29.90F
SIDNEY         CLOUDY    37  30  76 S8        29.93F WCI  31
WOLF POINT     PTSUNNY   39  30  70 E3        29.89F
* BEAVER HILL  N/A       37  29  73 S10G16     N/A   WCI  30
* CIRCLE       N/A       43  36  76 SW4G9      N/A
* LINDSAY DVD  N/A       40  30  68 SE6G12     N/A   WCI  36
* NAVAJO       N/A       38  30  73 SW12       N/A   WCI  30
* PLENTYWOOD A PTSUNNY   36  30  79 SE8       29.87F WCI  30
* POPLAR APT   CLOUDY    39  30  70 N/A       29.88F
* SACO         N/A       43  34  71 S9         N/A
* SCOBEY APT   PTCLDY    36  27  70 SE6        N/A   WCI  31
$$

MTZ028>042-056>058-252000-
SOUTHCENTRAL AND SOUTHEAST MONTANA
CITY           SKY/WX    TMP DP  RH WIND       PRES   REMARKS
BAKER          CLOUDY    41  28  60 SW9       29.94F
BILLINGS       CLOUDY    52  32  47 SW15      30.01F
LIVINGSTON     CLOUDY    52  28  40 SW37G49   30.11S
MILES CITY     CLOUDY    39  32  76 S7        29.94F WCI  34
* BIG TIMBER A CLOUDY    54  28  37 SW36G45   30.06F
* FORSYTH APT  PTCLDY    50  36  59 W6        29.94F
* LAUREL APT   CLOUDY    48  27  44 SW15G21    N/A
* ROUNDUP APT  PTSUNNY   57  32  39 SW22G30    N/A
* ALZADA       N/A       47  27  46 SW9        N/A
* HYSHAM       N/A       49  32  52 W10        N/A
* LAME DEER    N/A       46  32  58 W15G20     N/A
* REED POINT   N/A       61  33  35 W21G42     N/A
* ROSCOE HILL  N/A       57  18  22 W14G26     N/A
$$

REGIONAL REPORTS...DAKOTAS
CITY           SKY/WX    TMP DP  RH WIND       PRES   REMARKS
WILLISTON      CLOUDY    37  28  70 S5        29.92F WCI  33
DICKINSON      CLOUDY    39  28  65 W5        29.93F WCI  35
BEACH          SUNNY     37  32  82 SW9       29.94F WCI  30
CROSBY         SUNNY     34  34 100 SW10      29.90F WCI  26
TIOGA          PTCLDY    32  32 100 SW8       29.94F WCI  25
WATFORD CITY   SUNNY     36  32  85 S6        29.92F WCI  31
BISMARCK       CLOUDY    36  32  85 W9        29.99F WCI  29
GRAND FORKS    PTSUNNY   23  10  57 CALM      30.04F
FARGO          PTCLDY    25  14  63 NW6       30.05R WCI  18
BUFFALO SD     PTCLDY    43  27  53 W10       29.90F
RAPID CITY     CLOUDY    46  18  33 S3        30.01F
$$

REGIONAL REPORTS...WYOMING/IDAHO/WASHINGTON
CITY           SKY/WX    TMP DP  RH WIND       PRES   REMARKS
GILLETTE       PTSUNNY   46  34  63 SW14      30.04F
SHERIDAN       PTCLDY    46  34  63 S6        30.03S
CODY           CLOUDY    55  27  34 W12G24    30.09F
YELLOWSTONE LA PTCLDY    30  25  82 CALM      30.39F
SALMON         PTSUNNY   32  25  75 CALM      30.40F
MULLAN PASS    CLOUDY    39  34  82 VRB5      30.25S WCI  35
SAND POINT     CLOUDY    43  43 100 S7        30.24S
SPOKANE        CLOUDY    46  41  83 S5        30.24S
$$

REGIONAL REPORTS...ALBERTA
CITY           SKY/WX    TMP DP  RH WIND       PRES   REMARKS
CALGARY        PTSUNNY   55  32  42 S6        29.81S
LETHBRIDGE     PTSUNNY   55  36  49 SW24G32   29.88R
MEDICINE HAT   PTCLDY    54  39  57 SW12      29.80F
EDMONTON       PTSUNNY   39  30  70 W9        29.72R WCI  33
WATERTON GATE  N/A       57  27  32 W23G48     N/A
CARDSTON       N/A       59  34  39 W7         N/A
MILK RIVER     N/A       52  36  55 W25G35     N/A
$$

REGIONAL REPORTS...SASKATCHEWAN
CITY           SKY/WX    TMP DP  RH WIND       PRES   REMARKS
SWIFT CURRENT  SUNNY     45  36  71 W21G29    29.70F
MOOSE JAW      PTSUNNY   41  30  65 S17G24    29.76F
REGINA         PTSUNNY   32  32 100 SE12      29.80F WCI  23
VAL MARIE      N/A       41  34  76 SW8        N/A
ASSINIBOIA     N/A       39  30  70 SW9        N/A   WCI  33
CORONACH       N/A       37  30  76 S10        N/A   WCI  30

$$




USA.gov is the U.S. government's official web portal to all federal, state and local government web resources and services.